Station WKXA1 - Safe Harbor Met Station, Weeks Bay Reserve, AL Image indicating link to RSS feed of recent meteorological observations for station WKXA1


Conditions at WKXA1 as of
(6:00 am CDT)
1100 GMT on 09/04/2026:
     

Click on the graph icon in the table below to see a time series plot of the last five days of that observation.

5-day plot - Wind Speed Wind Speed (WSPD): 0.0 kts
5-day plot - Atmospheric Pressure Atmospheric Pressure (PRES):29.94 in
5-day plot - Pressure Tendency Pressure Tendency (PTDY):+0.03 in ( Rising )
5-day plot - Air Temperature Air Temperature (ATMP): 76.8 °F
5-day plot - Dew Point Dew Point (DEWP): 76.5 °F
5-day plot -  Wind Speed, Wind Gust and Atmospheric Pressure Combined plot of Wind Speed, Gust, and Air Pressure
Previous observations
TIME
(CDT)
5-day plot - Wind Direction
WDIR
 
5-day plot - Wind Speed
WSPD
kts
5-day plot - Wind Gust
GST
kts
5-day plot - Wave Height
WVHT
ft
5-day plot - Dominant Wave Period
DPD
sec
5-day plot - Average Wave Period
APD
sec
5-day plot - Mean Wave Direction
MWD
 
5-day plot - Atmospheric Pressure
PRES
in
5-day plot - Pressure Tendency
PTDY
in
5-day plot - Air Temperature
ATMP
°F
5-day plot - Water Temperature
WTMP
°F
5-day plot - Dew Point
DEWP
°F
5-day plot - Salinity
SAL
psu
5-day plot - Visibility
VIS
nmi
5-day plot - Tide (above MLLW)
TIDE
ft
2026-09-04 05:45 am- 0.0-----29.94- 76.6- 76.3---
2026-09-04 05:30 am- 0.0-----29.94- 76.6- 76.3---
2026-09-04 05:15 am- 0.0-----29.91- 76.6- 76.3---
2026-09-04 05:00 am- 0.0-----29.91-0.03 76.6- 76.3---
2026-09-04 04:45 am- 0.0-----29.91- 77.0- 76.6---
2026-09-04 04:30 am- 0.0-----29.91- 77.0- 76.6---
2026-09-04 04:15 am- 0.0-----29.91- 77.2- 76.8---
2026-09-04 04:00 am- 0.0-----29.91-0.03 77.2- 76.8---
2026-09-04 03:45 am- 0.0-----29.91- 77.2- 76.8---
2026-09-04 03:30 am- 0.0-----29.91- 77.4- 77.0---
2026-09-04 03:15 am- 0.0-----29.91- 77.4- 77.0---
2026-09-04 03:00 am- 0.0-----29.91-0.06 77.5- 77.2---
2026-09-04 02:45 am- 0.0-----29.91- 77.7- 77.4---
2026-09-04 02:30 am- 0.0-----29.91- 77.7- 77.4---
2026-09-04 02:15 am- 0.0-----29.91- 77.7- 77.4---
2026-09-04 02:00 am- 0.0-----29.94+0.00 77.7- 77.4---
2026-09-04 01:45 am- 0.0-----29.94- 77.9- 77.5---
2026-09-04 01:30 am- 0.0-----29.94- 78.1- 77.7---
2026-09-04 01:15 am- 0.0-----29.94- 78.3- 77.9---
2026-09-04 01:00 am- 0.0-----29.94+0.00 78.3- 77.9---
2026-09-04 12:45 am- 0.0-----29.94- 78.3- 77.9---
2026-09-04 12:30 am- 0.0-----29.94- 78.4- 78.1---
2026-09-04 12:15 am- 0.0-----29.94- 78.4- 78.1---
2026-09-04 12:00 am- 0.0-----29.97+0.03 78.4- 78.1---
2026-09-03 11:45 pm- 0.0-----29.94- 78.6- 78.3---
2026-09-03 11:30 pm- 0.0-----29.94- 79.0- 78.6---
2026-09-03 11:15 pm- 0.0-----29.94- 79.2- 78.8---
2026-09-03 11:00 pm- 0.0-----29.94+0.00 79.2- 78.8---
2026-09-03 10:45 pm- 0.0-----29.94- 79.2- 78.8---
2026-09-03 10:30 pm- 0.0-----29.94- 79.3- 79.0---
2026-09-03 10:15 pm- 0.0-----29.94- 79.5- 79.0---
2026-09-03 10:00 pm- 0.0-----29.94+0.00 79.5- 79.0---
2026-09-03 09:45 pm- 0.0-----29.97- 79.5- 79.0---
2026-09-03 09:30 pm- 0.0-----29.97- 79.5- 79.0---
2026-09-03 09:15 pm- 0.0-----29.97- 79.7- 79.2---
2026-09-03 09:00 pm- 0.0-----29.94+0.03 79.9- 79.3---
2026-09-03 08:45 pm- 0.0-----29.94- 79.9- 79.0---
2026-09-03 08:30 pm- 0.0-----29.94- 79.9- 79.0---
2026-09-03 08:15 pm- 0.0-----29.94- 80.1- 78.8---
2026-09-03 08:00 pm- 0.0-----29.94+0.03 80.2- 78.8---
2026-09-03 07:45 pm- 0.0-----29.94- 80.6- 79.2---
2026-09-03 07:30 pm- 0.0-----29.94- 81.0- 79.2---
2026-09-03 07:15 pm- 0.0-----29.94- 81.1- 78.3---
2026-09-03 07:00 pm- 0.0-----29.94+0.00 82.0- 79.0---
2026-09-03 06:45 pm- 0.0-----29.91- 82.9- 79.2---
2026-09-03 06:30 pm- 0.0-----29.91- 83.8- 78.3---
2026-09-03 06:15 pm- 0.0-----29.91- 84.6- 78.6---
2026-09-03 06:00 pm- 0.0-----29.91-0.03 84.9- 78.6---
2026-09-03 05:45 pm- 0.0-----29.91- 84.7- 79.2---
2026-09-03 05:30 pm- 0.0-----29.91- 84.6- 79.7---
2026-09-03 05:15 pm- 0.0-----29.91- 84.4- 80.2---
2026-09-03 05:00 pm- 0.0-----29.91-0.06 84.4- 81.1---
2026-09-03 04:45 pm- 0.0-----29.91- 84.2- 81.3---
2026-09-03 04:30 pm- 0.0-----29.91- 84.0- 81.1---
2026-09-03 04:15 pm- 0.0-----29.94- 83.5- 80.6---
2026-09-03 04:00 pm- 0.0-----29.94-0.03 82.6- 80.1---
2026-09-03 03:45 pm- 0.0-----29.94- 81.1- 79.7---
2026-09-03 03:30 pm SW 1.0-----29.94- 80.6- 78.8---
2026-09-03 03:15 pmESE 1.0-----29.94- 83.7- 78.8---
2026-09-03 03:00 pm- 0.0-----29.94-0.06 85.8- 76.8---
2026-09-03 02:45 pm- 0.0-----29.94- 86.2- 75.9---
2026-09-03 02:30 pm S 1.0-----29.97- 85.8- 75.6---
2026-09-03 02:15 pmSSW 1.0-----29.97- 84.2- 76.5---
2026-09-03 02:00 pm SW 1.0-----29.97-0.03 84.2- 77.2---
2026-09-03 01:45 pm S 1.9-----29.97- 86.5- 75.9---
2026-09-03 01:30 pm- 0.0-----29.97- 89.1- 77.0---
2026-09-03 01:15 pm- 0.0-----29.97- 88.9- 76.8---
2026-09-03 01:00 pm NE 2.9-----29.97-0.03 89.2- 76.3---
2026-09-03 12:45 pmENE 1.9-----29.97- 90.0- 77.0---
2026-09-03 12:30 pm NE 4.1-----29.97- 90.1- 77.2---
2026-09-03 12:15 pm NE 2.9-----30.00- 90.5- 76.6---
2026-09-03 12:00 pmNNE 1.9-----30.00+0.00 90.1- 76.6---
2026-09-03 11:45 amNNE 2.9-----30.00- 89.2- 76.3---
2026-09-03 11:30 am N 2.9-----30.00- 88.2- 77.0---
2026-09-03 11:15 am N 1.9-----30.00- 87.4- 77.2---
2026-09-03 11:00 am N 1.9-----30.00+0.00 87.4- 76.8---
2026-09-03 10:45 am N 1.9-----30.00- 87.6- 75.6---
2026-09-03 10:30 am N 2.9-----30.00- 87.4- 75.4---
2026-09-03 10:15 am N 2.9-----30.00- 87.3- 75.7---
2026-09-03 10:00 am N 2.9-----30.00+0.03 86.9- 75.0---
2026-09-03 09:45 am N 1.9-----30.00- 85.8- 76.8---
2026-09-03 09:30 am N 1.9-----30.00- 84.7- 77.0---
2026-09-03 09:15 am N 1.9-----30.00- 83.3- 77.0---
2026-09-03 09:00 am N 1.9-----30.00+0.03 82.4- 77.2---
2026-09-03 08:45 am N 1.9-----30.00- 80.6- 77.2---
2026-09-03 08:30 am N 1.0-----30.00- 78.6- 76.8---
2026-09-03 08:15 am- 0.0-----30.00- 78.1- 76.6---
2026-09-03 08:00 am- 0.0-----30.00+0.03 77.5- 76.6---
2026-09-03 07:45 am- 0.0-----30.00- 77.0- 76.5---
2026-09-03 07:30 am- 0.0-----29.97- 76.5- 76.1---
2026-09-03 07:15 am- 0.0-----29.97- 75.9- 75.6---
2026-09-03 07:00 am- 0.0-----29.97+0.00 75.7- 75.4---